Regional Weather Roundup
Issued by NWS Green Bay, WI

Home | Current Version | Previous Version | Graphics & Text | Print | Product List | Glossary Off
Versions: 1 2 3 4 5 6 7 8 9 10 11 12 13 14 15 16 17 18 19 20 21 22 23 24 25 26 27 28 29 30 31 32 33 34 35 36 37 38 39 40 41 42 43 44 45 46 47 48 49 50

000
ASUS43 KGRB 061011
RWRGRB

NORTH-CENTRAL AND NORTHEAST WISCONSIN REGIONAL WEATHER ROUNDUP
NATIONAL WEATHER SERVICE GREEN BAY WI
500 AM CDT MON JUL 06 2015

WIZ005-009-010>012-018-019-061100-
NORTH CENTRAL WISCONSIN

CITY           SKY/WX    TMP DP  RH WIND       PRES   REMARKS
IRONWOOD       CLOUDY    66  66 100 CALM      29.82R
MANITOWISH WTR RAIN      67  66  97 S6        29.87R
ARBOR VITAE    CLOUDY    69  66  88 SW10G17   29.89R
EAGLE RIVER    CLOUDY    68  63  83 SW9       29.89S
LAND O LAKES   CLOUDY    69  64  82 S7        29.88F
RHINELANDER    CLOUDY    69  63  81 SW10      29.92R
PHILLIPS       CLOUDY    67  66  97 S6        29.88F FOG
ANTIGO         CLOUDY    62  62  99 CALM      29.94R FOG
TOMAHAWK       CLOUDY    67  63  88 CALM      29.91S
MERRILL        CLOUDY    69  65  89 S3        29.92S
$$

WIZ013-073-061100-
NORTHEAST WISCONSIN

CITY           SKY/WX    TMP DP  RH WIND       PRES   REMARKS
IRON MOUNTAIN  CLOUDY    66  63  90 S6        29.89S FOG
MARINETTE      MOCLDY    68  61  77 SW6       29.91R
OCONTO         MOCLDY    67  67  99 S3        29.91R
$$

WIZ017-030-035>037-045-061100-
CENTRAL WISCONSIN

CITY           SKY/WX    TMP DP  RH WIND       PRES   REMARKS
MEDFORD        CLOUDY    66  64  94 SE3       29.90S FOG
WAUSAU         CLOUDY    68  64  87 SE5       29.90S
MOSINEE        CLOUDY    64  64 100 S6        29.92S FOG
MARSHFIELD     CLOUDY    68  62  81 S7        29.88F HAZE
WISC RAPIDS    CLOUDY    68  63  84 S6        29.91S
STEVENS POINT  CLOUDY    66  63  89 S7        29.92R
WAUPACA        CLOUDY    67  66  95 SE3       29.93R
SHAWANO        CLOUDY    68  64  85 CALM      29.92R
CLINTONVILLE   MOCLDY    63  61  94 S5        29.91R
$$

WIZ038-039-048-051-061100-
FOX VALLEY

CITY           SKY/WX    TMP DP  RH WIND       PRES   REMARKS
NWS GREEN BAY  MOCLDY    67  62  84 S6        29.92R HAZE
APPLETON       MOCLDY    66  61  82 S9        29.94R
OSHKOSH        MOCLDY    67  62  84 SW9       29.92S
FOND DU LAC    MOCLDY    67  63  87 S9        29.92F
$$

WIZ022-050-052-061100-
EAST CENTRAL WISCONSIN

CITY           SKY/WX    TMP DP  RH WIND       PRES   REMARKS
STURGEON BAY   MOCLDY    64  57  77 S8        29.94S
MANITOWOC      PTCLDY    62  60  93 MISG      29.94S FOG
SHEBOYGAN      PTCLDY    62  59  90 W5        29.94F FOG
$$

LMZ563-521-522-541>543-061100-
LAKESHORE

STATION/POSITION TIME  TEMP    WIND        PRES    VSBY  WAVE
                       AIR SEA DIR/SP/G                  HT/PER
                 (UTC) (F)     (DEG/KT/KT) (MB)    (MI)  (FT/S)
SHEBOYGAN LKSHOR 1000   62     180/ 12/ 12 1013.9F
KEWAUNEE LKSHORE 0900   61     180/ 11/ 12 1013.1F
ALGOMA MARINA    0911          210/ 11/ 12   N/A
NORTHPORT PIER   0900   63     140/  5/  9 1012.5F
N MID LAKE BUOY  0950   57 54  200/ 16/ 19 1013.4S         2/ 4
CHAMBERS ISLAND  0900   70     170/  6/ 13 1012.5F
MENOMINEE LKSHOR 0900   70     180/ 10/ 14 1012.9F
$$


USA.gov is the U.S. government's official web portal to all federal, state and local government web resources and services.